When you browse on this site, cookies collect data to enhance your experience and personalize the content and advertising you see.
Visit our Privacy Policy to learn more. By continuing to use the site, you agree to this use of cookies and data.
  • In Latvia
  • List of Countries
  • For 7 days
  • Water Temperature
  • Weather Map
  • Weather Widgets
  • user-avatar
    Login

    Hourly Weather Wafra

    Today, 19 September, Thursday

    Time Temperature Precipitation Wind Pressure Humidity
    00:00 +38°C° 0 mm 7 mps 742 mmHg 15%
    01:00 +36°C° 0 mm 7 mps 741 mmHg 15%
    02:00 +36°C° 0 mm 7 mps 741 mmHg 16%
    03:00 +35°C° 0 mm 7 mps 741 mmHg 17%
    04:00 +35°C° 0 mm 7 mps 742 mmHg 17%
    05:00 +35°C° 0 mm 7 mps 742 mmHg 16%
    06:00 +34°C° 0 mm 8 mps 743 mmHg 16%
    07:00 +38°C° 0 mm 9 mps 743 mmHg 13%
    08:00 +40°C° 0 mm 9 mps 743 mmHg 11%
    09:00 +44°C° 0 mm 10 mps 743 mmHg 8%
    10:00 +45°C° 0 mm 10 mps 743 mmHg 7%
    11:00 +48°C° 0 mm 10 mps 743 mmHg 7%
    12:00 +49°C° 0 mm 9 mps 743 mmHg 6%
    13:00 +50°C° 0 mm 9 mps 742 mmHg 7%
    14:00 +50°C° 0 mm 8 mps 742 mmHg 7%
    15:00 +50°C° 0 mm 8 mps 741 mmHg 7%
    16:00 +47°C° 0 mm 7 mps 741 mmHg 8%
    17:00 +45°C° 0 mm 6 mps 741 mmHg 8%
    18:00 +43°C° 0 mm 5 mps 741 mmHg 9%
    19:00 +41°C° 0 mm 5 mps 742 mmHg 10%
    20:00 +40°C° 0 mm 5 mps 742 mmHg 10%
    21:00 +37°C° 0 mm 5 mps 742 mmHg 10%
    22:00 +37°C° 0 mm 5 mps 742 mmHg 11%
    23:00 +36°C° 0 mm 5 mps 742 mmHg 12%

    Tomorrow, 20 September, Friday

    Time Temperature Precipitation Wind Pressure Humidity
    00:00 +35°C° 0 mm 5 mps 742 mmHg 13%
    01:00 +34°C° 0 mm 5 mps 742 mmHg 14%
    02:00 +34°C° 0 mm 5 mps 741 mmHg 16%
    03:00 +33°C° 0 mm 5 mps 741 mmHg 17%
    04:00 +32°C° 0 mm 5 mps 741 mmHg 18%
    05:00 +32°C° 0 mm 5 mps 741 mmHg 19%
    06:00 +30°C° 0 mm 4 mps 742 mmHg 20%
    07:00 +35°C° 0 mm 5 mps 742 mmHg 17%
    08:00 +39°C° 0 mm 6 mps 742 mmHg 13%
    09:00 +42°C° 0 mm 6 mps 742 mmHg 10%
    10:00 +44°C° 0 mm 6 mps 742 mmHg 9%
    11:00 +45°C° 0 mm 6 mps 742 mmHg 7%
    12:00 +47°C° 0 mm 6 mps 741 mmHg 5%
    13:00 +47°C° 0 mm 6 mps 741 mmHg 5%
    14:00 +47°C° 0 mm 5 mps 740 mmHg 5%
    15:00 +48°C° 0 mm 5 mps 739 mmHg 4%
    16:00 +43°C° 0 mm 4 mps 739 mmHg 7%
    17:00 +40°C° 0 mm 4 mps 739 mmHg 9%
    18:00 +35°C° 0 mm 3 mps 739 mmHg 11%
    19:00 +34°C° 0 mm 3 mps 739 mmHg 14%
    20:00 +33°C° 0 mm 3 mps 739 mmHg 16%
    21:00 +31°C° 0 mm 3 mps 740 mmHg 18%
    22:00 +33°C° 0 mm 4 mps 739 mmHg 15%
    23:00 +33°C° 0 mm 4 mps 739 mmHg 12%

    Day after tomorrow, 21 September, Saturday

    Time Temperature Precipitation Wind Pressure Humidity
    00:00 +33°C° 0 mm 4 mps 739 mmHg 8%
    01:00 +32°C° 0 mm 5 mps 739 mmHg 8%
    02:00 +32°C° 0 mm 5 mps 739 mmHg 9%
    03:00 +32°C° 0 mm 5 mps 739 mmHg 9%
    04:00 +32°C° 0 mm 5 mps 739 mmHg 9%
    05:00 +32°C° 0 mm 4 mps 739 mmHg 10%
    06:00 +30°C° 0 mm 4 mps 739 mmHg 11%
    07:00 +34°C° 0 mm 4 mps 739 mmHg 10%
    08:00 +37°C° 0 mm 4 mps 740 mmHg 10%
    09:00 +40°C° 0 mm 4 mps 740 mmHg 10%
    10:00 +42°C° 0 mm 3 mps 740 mmHg 9%
    11:00 +43°C° 0 mm 3 mps 740 mmHg 9%
    12:00 +45°C° 0 mm 3 mps 740 mmHg 8%
    13:00 +45°C° 0 mm 4 mps 739 mmHg 9%
    14:00 +45°C° 0 mm 4 mps 739 mmHg 9%
    15:00 +46°C° 0 mm 5 mps 738 mmHg 10%
    16:00 +41°C° 0 mm 4 mps 738 mmHg 18%
    17:00 +37°C° 0 mm 4 mps 738 mmHg 26%
    18:00 +33°C° 0 mm 3 mps 738 mmHg 35%
    19:00 +31°C° 0 mm 2 mps 738 mmHg 39%
    20:00 +30°C° 0 mm 2 mps 738 mmHg 43%
    21:00 +28°C° 0 mm 1 mps 739 mmHg 47%
    22:00 +28°C° 0 mm 1 mps 739 mmHg 44%
    23:00 +28°C° 0 mm 1 mps 739 mmHg 41%

    22 September, Sunday

    Time Temperature Precipitation Wind Pressure Humidity
    00:00 +28°C° 0 mm 2 mps 739 mmHg 38%
    01:00 +29°C° 0 mm 2 mps 738 mmHg 34%
    02:00 +29°C° 0 mm 2 mps 738 mmHg 30%
    03:00 +29°C° 0 mm 2 mps 738 mmHg 26%
    04:00 +29°C° 0 mm 2 mps 738 mmHg 25%
    05:00 +29°C° 0 mm 2 mps 739 mmHg 24%
    06:00 +29°C° 0 mm 2 mps 739 mmHg 22%
    07:00 +32°C° 0 mm 2 mps 740 mmHg 19%
    08:00 +37°C° 0 mm 2 mps 740 mmHg 16%
    09:00 +40°C° 0 mm 3 mps 741 mmHg 12%
    10:00 +41°C° 0 mm 2 mps 741 mmHg 11%
    11:00 +43°C° 0 mm 2 mps 740 mmHg 10%
    12:00 +46°C° 0 mm 2 mps 740 mmHg 9%
    13:00 +46°C° 0 mm 3 mps 740 mmHg 9%
    14:00 +46°C° 0 mm 3 mps 739 mmHg 10%
    15:00 +47°C° 0 mm 4 mps 739 mmHg 10%
    16:00 +43°C° 0 mm 4 mps 739 mmHg 15%
    17:00 +40°C° 0 mm 4 mps 739 mmHg 20%
    18:00 +36°C° 0 mm 4 mps 739 mmHg 25%
    19:00 +35°C° 0 mm 4 mps 739 mmHg 25%
    20:00 +34°C° 0 mm 3 mps 740 mmHg 25%
    21:00 +34°C° 0 mm 3 mps 740 mmHg 25%
    22:00 +33°C° 0 mm 3 mps 740 mmHg 24%
    23:00 +33°C° 0 mm 3 mps 740 mmHg 22%

    23 September, Monday

    Time Temperature Precipitation Wind Pressure Humidity
    00:00 +33°C° 0 mm 3 mps 740 mmHg 21%
    01:00 +33°C° 0 mm 3 mps 740 mmHg 20%
    02:00 +33°C° 0 mm 3 mps 740 mmHg 20%
    03:00 +33°C° 0 mm 3 mps 740 mmHg 19%
    04:00 +33°C° 0 mm 3 mps 740 mmHg 19%
    05:00 +31°C° 0 mm 3 mps 740 mmHg 19%
    06:00 +31°C° 0 mm 2 mps 740 mmHg 18%
    07:00 +35°C° 0 mm 2 mps 741 mmHg 16%
    08:00 +37°C° 0 mm 1 mps 741 mmHg 13%
    09:00 +41°C° 0 mm 1 mps 742 mmHg 11%
    10:00 +43°C° 0 mm 1 mps 742 mmHg 10%
    11:00 +46°C° 0 mm 2 mps 741 mmHg 9%
    12:00 +47°C° 0 mm 2 mps 741 mmHg 8%
    13:00 +47°C° 0 mm 3 mps 741 mmHg 8%
    14:00 +48°C° 0 mm 4 mps 740 mmHg 9%
    15:00 +49°C° 0 mm 4 mps 740 mmHg 9%
    16:00 +44°C° 0 mm 4 mps 739 mmHg 14%
    17:00 +41°C° 0 mm 4 mps 739 mmHg 20%
    18:00 +36°C° 0 mm 3 mps 739 mmHg 25%
    19:00 +36°C° 0 mm 3 mps 739 mmHg 27%
    20:00 +35°C° 0 mm 2 mps 740 mmHg 28%
    21:00 +34°C° 0 mm 2 mps 740 mmHg 30%
    22:00 +32°C° 0 mm 2 mps 740 mmHg 31%
    23:00 +31°C° 0 mm 1 mps 740 mmHg 32%

    24 September, Tuesday

    Time Temperature Precipitation Wind Pressure Humidity
    00:00 +30°C° 0 mm 1 mps 740 mmHg 33%
    01:00 +31°C° 0 mm 2 mps 740 mmHg 31%
    02:00 +31°C° 0 mm 2 mps 740 mmHg 28%
    03:00 +31°C° 0 mm 2 mps 740 mmHg 26%
    04:00 +31°C° 0 mm 3 mps 740 mmHg 24%
    05:00 +33°C° 0 mm 3 mps 740 mmHg 23%
    06:00 +33°C° 0 mm 3 mps 740 mmHg 21%
    07:00 +36°C° 0 mm 2 mps 741 mmHg 18%
    08:00 +37°C° 0 mm 1 mps 741 mmHg 15%
    09:00 +41°C° 0 mm 1 mps 742 mmHg 11%
    10:00 +43°C° 0 mm 1 mps 742 mmHg 10%
    11:00 +44°C° 0 mm 1 mps 741 mmHg 9%
    12:00 +47°C° 0 mm 2 mps 741 mmHg 8%
    13:00 +47°C° 0 mm 3 mps 741 mmHg 8%
    14:00 +48°C° 0 mm 4 mps 740 mmHg 8%
    15:00 +49°C° 0 mm 4 mps 740 mmHg 8%
    16:00 +44°C° 0 mm 4 mps 740 mmHg 13%
    17:00 +41°C° 0 mm 4 mps 740 mmHg 18%
    18:00 +37°C° 0 mm 4 mps 739 mmHg 24%
    19:00 +36°C° 0 mm 3 mps 740 mmHg 28%
    20:00 +34°C° 0 mm 3 mps 740 mmHg 31%
    21:00 +32°C° 0 mm 2 mps 740 mmHg 35%
    22:00 +32°C° 0 mm 2 mps 740 mmHg 33%
    23:00 +32°C° 0 mm 2 mps 740 mmHg 31%
    Show more